Regional Weather Roundup
Issued by NWS Charleston, SC

Current Version | Previous Version | Text Only | Print | Product List | Glossary On
Versions: 1 2 3 4 5 6 7 8 9 10 11 12 13 14 15 16 17 18 19 20 21 22 23 24 25 26 27 28 29 30 31 32 33 34 35 36 37 38 39 40 41 42 43 44 45 46 47 48 49 50
000 ASUS42 KCHS 052227 RWRCHS REGIONAL WEATHER ROUNDUP NATIONAL WEATHER SERVICE CHARLESTON SC 500 PM EST FRI FEB 05 2016 NOTE: "FAIR" INDICATES FEW OR NO CLOUDS BELOW 12,000 FEET WITH NO SIGNIFICANT WEATHER AND/OR OBSTRUCTIONS TO VISIBILITY. NOT ALL STATIONS ARE QUALITY CONTROLLED BY THE NATIONAL WEATHER SERVICE. USE DATA WITH CAUTION...ESPECIALLY DEWPOINT OBSERVATIONS. NOTICE: OBSERVATIONS FOR THE SAVANNAH-HILTON HEAD INTERNATIONAL AIRPORT /KSAV/ HAVE BEEN TEMPORARILY REMOVED DUE TO AN ERRONEOUS TEMPERATURE SENSOR. THE OBSERVATION WILL BE REINTRODUCED ONCE REPAIRS ARE COMPLETE. SCZ027-030-031-034>040-042>050-052300- ...SOUTHEAST SOUTH CAROLINA... CITY SKY/WX TMP DP RH WIND PRES REMARKS N CHARLESTON SUNNY 51 22 31 N15 30.31S WATERFRONT PRK N/A 52 30 43 N8 30.15S MOUNT PLEASANT FAIR 52 28 40 N8 30.32R JOHNS ISLAND FAIR 52 27 37 N10 30.31R PINOPOLIS N/A 54 27 35 N10 30.22F MONCKS CORNER FAIR 46 19 34 N6 30.32R SUMMERVILLE FAIR 50 27 40 N7 30.33R BEAUFORT MCAS SUNNY 52 22 30 N15 30.31R BEAUFORT ARPT FAIR 52 23 32 N8 30.30S HILTON HEAD IS SUNNY 52 27 37 N12 30.30S WALTERBORO CLEAR 52 19 28 N8 30.32S ALLENDALE FAIR 52 18 25 CALM 30.31R ...SOUTHERN MIDLANDS AND PEE DEE... CITY SKY/WX TMP DP RH WIND PRES REMARKS GEORGETOWN NOT AVBL KINGSTREE NOT AVBL ORANGEBURG SUNNY 52 14 22 N12 30.32S BARNWELL FAIR 52 21 30 N9 30.33R AIKEN FAIR 46 18 31 N7 30.36R MANNING FAIR 48 19 32 N8 30.33S COLUMBIA SUNNY 52 14 22 N8 30.32F SUMTER CLEAR 50 15 25 N10 30.31S FLORENCE CLEAR 49 20 31 NW8 30.33R MYRTLE BEACH CLEAR 52 23 32 N15 30.33S N MYRTLE BEACH CLEAR 50 27 40 N7 30.31R $$ GAZ063-065-086>088-099>101-113>116-118-119-134>141-150-052300- ...SOUTHEAST GEORGIA... CITY SKY/WX TMP DP RH WIND PRES REMARKS SAVANNAH ARPT SUNNY 54 23 30 NE8 30.30R HUNTER AAF SUNNY 54 27 34 N9 30.27S FORT STEWART SUNNY 54 25 32 N6 30.28R STATESBORO SUNNY 56 10 15 N7 30.32R SYLVANIA CLEAR 53 28 37 NE5 30.32R CLAXTON FAIR 54 29 38 N6 30.32R ...CSRA...CENTRAL AND FAR SOUTHEAST GEORGIA... CITY SKY/WX TMP DP RH WIND PRES REMARKS THOMSON SUNNY 51 23 33 NE3 30.37S AUGUSTA-BUSH SUNNY 51 18 27 NE10 30.33R AUGUSTA-DANIEL SUNNY 52 16 24 VRB6 30.33S SWAINSBORO FAIR 52 21 30 NE3 30.33R VIDALIA SUNNY 52 23 32 NE7 30.32R EASTMAN FAIR 53 19 26 NE5 30.36R HAZLEHURST FAIR 54 23 30 NE5 30.31R ALMA SUNNY 53 24 32 VRB6 30.31R WAYCROSS SUNNY 55 30 37 NE7 30.31R JESUP FAIR 55 32 41 N6 30.32R BAXLEY FAIR 54 25 32 N5 30.31R BRUNSWICK SUNNY 54 32 43 NE8 30.31R SAINT SIMONS SUNNY 52 36 54 NE12 30.29R $$ SCZ027-028-034-036>038-045-046-048>050-GAZ119-141-052300- ...LAKE AND SUPPLEMENTAL COASTAL OBSERVATIONS... STATION/POSITION TIME TEMP WIND PRES WAVE SWELL AIR SEA DIR/SP/G HT/PER HT/PER/DIR (UTC) (F) (DEG/KT/KT) (MB) (FT/S) (FT/S/D) WINYAH BAY 2100 49 360/ 7 1024.0F LAKE MURRAY 2100 52 CALM / 4 1026.8R ACE BASIN NERRS 2100 52 10/ 4 1026.0S FORT PULASKI 2200 53 55 30/ 9/ 16 1026.1R SAPELO ISLAND 2200 55 30/ 7 1026.0R $$ ANZ835-935-AMZ111-154-330-350-352-354-370-450-454-472-052300- ...C-MAN AND BUOY OBSERVATIONS... STATION/POSITION TIME TEMP WIND PRES WAVE SWELL AIR SEA DIR/SP/G HT/PER HT/PER/DIR (UTC) (F) (DEG/KT/KT) (MB) (FT/S) (FT/S/D) BUOY 41004 2150 49 68 10/ 17/ 21 1025.8R 5/ 7 BUOY 41008 2150 51 56 50/ 12/ 16 1026.0R 3/ 5 2/ 50/ 6 FOLLY BEACH CMAN 2200 51 340/ 7/ 9 1026.3R CAPERS NEARSHORE 2108 51 10/ 10/ 14 1025.5R FRIPP NEARSHORE 2100 53 350/ 14/ 16 1024.7F STATION/POSITION TIME TEMP WIND PRES WAVE SWELL AIR SEA DIR/SP/G HT/PER HT/PER/DIR (UTC) (F) (DEG/KT/KT) (MB) (FT/S) (FT/S/D) 5E ST. MARYS GA 2121 58 N/A 4/ 5 FRYING PAN BUOY 2200 49 67 360/ 16/ 23 1025.7R BUOY 41025 2150 70 360/ 21/ 27 1025.1R 8/10 5/ 50/10 CAPE LOOKOUT NC NOT AVBL BUOY 41002 2150 59 69 360/ 23/ 29 N/A 12/ 8 BUOY 41010 2120 65 73 1020.7R ST AUGUSTINE FL 2200 51 60 10/ 18/ 20 1026.2R $$

USA.gov is the U.S. government's official web portal to all federal, state and local government web resources and services.